Theta_e
323 337 349 351 351 352 352 353 351 353 352 351 350 349 348 347 346 345 344 344 344 344 343 344 345 346 348 352 356 357 356 355 353 353 354 355 354 353 352 353 351 350 355
329 341 346 349 350 351 352 352 351 351 351 351 351 350 349 348 347 347 347 347 346 345 344 344 344 345 347 352 355 355 355 354 351 351 351 350 352 354 352 352 351 350 353
331 341 343 347 349 350 350 350 348 348 349 349 350 350 350 349 349 349 349 349 347 346 345 344 344 345 347 349 352 353 354 353 350 349 349 348 347 353 353 352 351 353 351
336 342 343 345 348 346 349 350 350 349 349 349 349 349 348 349 349 348 349 348 348 346 346 345 343 344 347 348 350 351 353 352 349 347 348 348 348 354 353 351 352 353 353
312 321 325 337 343 342 344 346 347 347 348 348 349 350 347 348 348 348 348 349 349 346 346 346 344 345 346 347 349 351 351 350 346 345 344 346 345 351 353 352 352 352 349
310 312 320 328 330 334 339 342 343 342 343 345 346 346 348 348 348 346 347 348 347 346 345 346 346 348 345 346 347 350 350 349 345 343 342 345 344 352 353 353 352 348 346
304 308 310 323 324 327 328 330 334 335 339 340 342 343 344 346 345 346 346 347 347 346 345 345 348 349 348 347 346 349 349 346 342 342 339 343 344 353 353 351 351 349 350
301 303 304 311 318 321 323 323 326 329 333 336 338 339 341 342 343 344 345 344 345 345 345 346 348 347 347 347 347 347 345 340 339 341 339 339 343 351 352 352 351 351 350
299 300 300 301 307 313 317 318 319 319 322 328 331 334 335 338 340 340 341 342 343 344 345 346 345 346 347 346 346 344 340 337 339 340 340 338 340 350 352 350 351 351 349
297 296 297 299 300 302 303 313 315 314 316 320 325 329 329 330 333 335 334 336 341 342 342 343 341 343 345 345 343 341 337 335 339 338 337 337 340 351 351 350 350 349 348
297 295 296 297 298 300 301 304 308 309 311 315 319 321 322 326 328 330 331 333 338 339 339 340 341 341 338 337 338 337 334 338 337 336 336 335 341 350 351 351 350 349 348
292 294 294 294 296 298 300 300 300 302 302 307 313 313 318 321 324 326 325 327 331 332 335 337 338 337 333 333 335 333 337 337 334 335 335 335 342 349 351 351 349 348 348
290 292 294 293 294 295 296 297 296 299 299 305 307 308 311 311 318 321 325 328 328 324 327 330 332 333 330 330 333 336 336 331 333 332 332 333 342 348 350 350 349 348 347
289 291 292 293 293 293 293 293 293 294 297 300 304 307 306 309 306 307 311 315 324 326 325 327 328 328 327 329 332 332 333 330 330 331 331 328 337 346 349 350 349 348 347
287 289 290 291 291 292 292 291 292 291 293 296 299 302 305 305 303 306 305 305 309 316 325 325 326 325 326 330 330 329 328 327 327 330 332 323 330 341 348 348 348 347 347
288 288 288 289 290 291 291 290 291 292 293 294 294 297 302 302 300 303 302 301 310 313 312 320 326 325 326 328 328 327 326 325 325 328 330 329 326 334 342 347 348 347 347
286 287 287 289 290 289 290 291 292 292 293 293 293 295 298 298 298 301 300 301 307 308 305 305 316 325 325 326 326 326 326 324 324 325 328 328 328 325 333 343 345 346 346
285 286 287 290 289 290 289 291 291 292 292 292 293 294 294 294 296 299 298 300 302 303 303 302 303 317 322 323 323 324 324 325 324 324 326 327 328 329 329 336 340 342 344
284 285 286 287 288 289 290 290 290 290 291 292 292 292 292 293 294 298 297 299 299 300 300 301 302 302 318 321 321 322 323 324 324 324 324 325 326 328 331 331 331 333 338
284 284 285 287 287 288 289 289 289 289 289 290 289 290 290 291 292 294 296 298 298 299 298 300 300 302 301 313 320 320 321 322 323 322 323 324 326 327 329 332 332 328 332
283 284 284 286 286 287 287 286 286 285 286 286 287 287 287 289 290 290 292 294 296 297 297 298 300 300 300 302 300 317 319 319 319 320 320 323 323 324 326 327 329 327 332
282 283 284 285 286 286 286 286 285 284 284 284 284 284 284 284 285 285 287 290 294 296 297 297 298 298 299 300 295 314 309 312 316 318 318 319 320 320 321 324 327 325 330
281 282 284 285 285 285 285 285 284 283 283 282 281 281 282 282 282 283 283 285 290 294 295 294 296 296 296 298 299 297 308 306 311 314 317 317 317 319 320 322 324 325 324
282 282 283 285 285 285 284 282 280 279 278 280 280 280 280 281 280 282 284 287 288 292 294 293 294 294 296 296 297 300 297 310 308 301 312 315 316 315 319 320 322 323 323
282 281 282 283 283 284 283 281 279 278 278 279 279 278 278 278 280 280 283 283 286 287 293 293 292 294 296 296 296 296 297 298 313 308 305 307 313 315 316 320 320 320 322
282 281 281 282 281 282 281 279 278 277 277 276 276 275 276 276 278 279 279 280 282 286 287 293 294 294 294 294 297 298 296 297 310 309 307 308 309 312 315 317 319 318 319
Wind_Speed
5 0 3 5 4 3 4 4 5 7 7 7 7 5 4 4 4 4 4 4 5 7 8 9 10 10 10 10 10 9 8 9 8 6 7 7 8 10 11 11 11 7 12
2 2 2 4 4 4 7 7 6 6 6 6 7 7 8 8 7 7 7 7 8 8 10 11 11 11 11 11 12 9 9 8 9 8 7 7 8 11 12 12 11 10 14
9 7 7 9 6 7 9 8 6 6 7 8 9 9 9 10 10 10 9 9 9 10 11 11 12 13 10 11 14 13 11 10 11 8 9 4 5 11 14 12 13 14 15
11 8 7 10 12 14 13 10 6 7 9 10 11 12 12 12 12 11 11 8 9 11 13 13 12 13 12 11 13 12 12 11 11 9 5 5 6 12 14 13 15 15 15
17 14 14 17 13 14 17 15 14 12 8 10 12 14 15 13 12 12 11 11 11 13 13 15 14 13 13 11 12 13 12 12 11 9 6 6 5 11 15 16 16 16 16
14 13 18 25 23 21 20 18 17 16 17 15 14 13 15 15 14 13 12 12 13 14 15 16 15 14 13 12 12 11 13 15 11 7 6 8 6 12 18 16 15 15 13
12 11 14 23 25 25 25 23 21 22 21 18 17 16 17 16 15 15 14 13 14 15 17 17 15 14 14 12 13 11 15 15 10 7 7 7 7 15 18 18 17 16 17
11 11 12 17 21 23 24 28 26 25 23 21 20 21 19 17 18 18 16 15 15 16 17 17 17 15 14 14 14 12 14 14 10 10 9 6 9 16 19 18 17 18 19
9 11 10 10 13 17 19 24 26 28 27 25 22 20 20 18 19 18 18 16 16 17 17 17 16 15 14 14 15 13 14 15 11 9 9 5 12 20 19 18 19 19 19
8 8 9 9 10 10 10 20 21 24 25 25 24 20 18 17 15 17 14 14 17 17 19 19 18 16 16 15 15 13 15 14 12 10 7 6 14 22 22 21 20 20 20
8 7 7 9 10 9 11 12 16 20 22 22 20 23 18 10 12 13 12 13 18 18 19 20 20 18 16 14 14 14 16 7 10 8 7 10 15 23 22 22 21 22 22
8 8 8 8 8 7 9 9 9 9 9 9 10 14 12 16 13 13 14 15 18 18 20 22 21 19 13 6 6 13 8 9 9 9 8 14 18 24 23 23 23 24 24
5 5 7 6 6 6 5 4 3 4 6 7 10 10 11 11 10 11 10 7 7 10 8 11 12 9 9 7 7 8 10 9 7 7 9 14 20 24 25 25 25 26 26
5 7 8 8 7 7 4 4 4 5 6 5 8 12 9 7 10 11 9 13 12 7 10 10 9 11 9 9 11 11 12 10 7 7 10 15 19 25 27 27 28 29 28
4 5 7 7 6 5 5 4 7 5 4 5 5 8 9 9 10 8 10 11 12 12 11 10 11 10 10 11 12 13 14 13 12 8 8 13 19 24 26 29 31 31 31
5 5 6 6 6 7 6 6 7 7 9 9 6 6 9 9 10 9 8 11 10 10 12 14 12 12 12 11 13 13 13 12 12 13 8 8 16 19 27 29 31 33 34
3 4 6 6 6 7 6 7 7 7 8 8 8 7 8 9 13 13 8 9 9 9 14 13 17 12 12 11 14 12 12 13 12 13 10 8 8 15 23 30 32 34 35
5 5 6 6 7 9 6 8 8 9 9 11 10 10 11 14 17 13 9 11 7 9 10 10 12 17 12 13 12 11 12 12 13 14 12 10 9 8 11 26 32 35 36
5 4 5 6 7 10 9 10 10 9 8 8 8 12 16 19 19 14 12 11 9 8 8 9 12 12 14 11 13 12 13 12 12 10 14 14 12 11 9 18 26 34 37
5 5 5 5 7 9 7 6 6 9 9 10 10 12 17 15 19 16 13 12 11 9 8 8 10 12 11 14 12 13 11 10 11 12 14 14 14 16 12 13 16 15 42
6 6 5 8 8 6 6 8 9 10 11 10 10 16 16 16 18 17 14 14 12 11 9 8 9 13 11 13 17 14 12 13 12 10 9 14 15 16 12 12 10 3 15
4 4 7 7 5 5 4 6 6 9 8 10 10 13 16 17 17 18 18 18 16 12 13 8 7 10 11 10 7 13 10 7 11 11 8 10 13 10 8 11 12 7 13
5 4 6 6 6 5 5 6 8 9 9 9 11 12 11 17 19 19 21 18 19 14 11 8 5 8 11 12 14 7 7 8 10 9 13 8 11 10 8 11 14 15 3
3 3 5 6 6 5 5 5 7 9 14 11 13 12 14 17 18 18 19 19 17 14 13 8 6 7 8 14 12 10 19 8 12 7 8 11 9 10 13 9 11 16 17
3 4 4 7 6 5 4 4 5 9 10 11 12 18 16 15 15 18 17 19 16 13 17 13 7 8 6 13 11 14 16 18 21 11 11 9 9 9 8 12 10 13 18
5 5 5 7 6 6 5 5 6 11 13 13 15 15 13 13 12 15 19 18 17 16 16 13 12 9 7 11 13 12 12 17 17 17 15 17 17 11 9 8 13 13 14
Wind_Direction
327 309 260 243 224 226 211 226 214 197 176 183 184 196 224 247 252 247 258 268 279 293 291 292 292 289 285 283 253 241 228 217 214 189 189 167 160 154 156 151 158 154 148
310 51 34 322 302 286 273 237 224 225 223 224 224 212 213 226 246 257 253 257 266 267 278 284 283 282 281 285 288 228 228 207 200 197 172 167 172 159 163 155 153 155 153
31 42 29 26 8 313 297 267 245 247 249 250 251 245 236 242 244 240 254 244 251 269 271 271 278 278 276 275 289 235 221 209 208 190 177 172 177 164 163 158 148 154 154
36 34 33 35 16 7 353 326 300 266 274 273 272 262 257 253 253 254 262 248 249 258 270 268 265 271 273 273 284 240 225 210 213 192 174 174 186 174 161 162 152 154 156
35 34 24 18 16 11 1 357 356 331 294 280 282 281 278 261 259 269 265 273 250 254 258 267 266 261 266 270 268 255 224 219 212 194 192 181 186 180 169 168 163 161 159
29 24 27 29 27 21 7 2 4 360 343 320 297 282 281 280 279 269 268 264 262 259 264 260 264 261 258 260 261 258 223 216 209 205 196 197 183 184 171 178 164 166 156
34 25 24 21 23 28 26 17 3 353 344 342 325 309 295 285 280 273 269 263 259 261 265 265 262 264 262 260 254 246 227 213 205 206 206 189 197 186 178 177 175 167 158
37 24 27 22 20 19 19 15 11 7 359 350 340 331 312 297 288 280 272 268 263 260 260 262 265 259 252 254 253 240 221 211 205 206 213 197 195 195 179 176 170 164 161
30 29 17 17 17 19 19 15 10 4 359 355 348 340 333 313 295 276 273 266 262 263 258 256 253 257 255 249 249 234 218 211 208 213 209 205 204 198 187 179 173 166 163
25 24 19 12 13 9 15 11 8 3 356 352 347 341 334 326 314 289 274 269 271 265 262 254 252 250 253 253 248 225 219 207 209 208 208 193 214 200 192 184 176 171 168
15 14 10 14 13 6 13 6 2 358 355 352 351 348 343 336 325 312 284 257 262 266 264 263 252 244 249 248 243 227 215 214 206 210 209 194 205 202 192 187 179 174 172
7 353 6 10 5 5 10 2 354 352 346 343 349 348 345 337 330 314 300 287 276 262 261 262 255 247 242 237 240 231 218 210 204 206 210 195 202 201 195 188 182 178 175
344 354 344 348 350 1 1 354 347 343 341 336 342 347 346 336 333 334 324 304 285 274 271 264 255 244 239 228 224 223 216 206 208 206 210 205 203 197 199 189 184 181 178
11 354 346 347 343 344 343 353 342 348 343 340 340 336 339 340 341 328 329 332 313 276 269 259 250 239 229 227 221 218 214 207 204 210 211 200 212 200 199 193 186 183 180
22 346 335 333 329 333 355 350 351 340 327 317 331 330 331 335 331 322 325 324 313 322 280 260 249 241 232 223 227 220 212 207 206 205 210 210 212 208 201 197 190 187 181
347 341 315 330 329 348 2 356 349 339 336 328 320 321 329 324 318 310 319 320 307 325 328 307 247 241 236 220 221 210 215 206 206 208 207 211 218 214 202 201 194 187 182
341 322 316 352 355 2 358 357 347 340 332 321 309 310 310 316 316 303 306 307 309 317 316 313 307 235 235 227 224 213 215 208 206 207 205 208 214 227 212 200 194 187 183
26 346 322 351 359 7 6 5 353 342 335 328 323 327 320 320 314 297 298 297 290 307 308 312 300 290 228 226 223 213 215 210 211 208 209 207 208 208 219 205 198 189 184
27 353 337 346 6 10 6 358 348 337 331 326 324 324 322 320 312 294 292 286 288 286 294 304 311 285 274 224 219 216 215 213 210 204 212 211 201 205 202 210 203 192 184
23 11 349 348 13 14 1 347 339 337 333 327 324 318 317 315 314 304 294 283 289 273 281 291 298 304 281 298 226 206 201 206 203 203 210 209 207 207 198 202 206 216 185
28 18 346 9 3 1 355 353 343 334 332 323 322 321 326 315 320 322 314 299 286 266 263 274 292 295 294 272 304 212 198 194 196 196 186 210 196 200 191 196 209 267 215
4 8 6 356 330 343 358 344 335 330 321 315 321 319 316 312 315 310 309 303 287 275 267 256 278 286 279 268 299 239 192 187 200 203 182 197 182 166 163 180 181 163 206
11 359 353 334 326 332 353 337 334 320 322 322 319 312 311 311 309 310 300 290 290 283 260 248 257 279 288 288 268 262 228 208 172 188 201 189 177 171 163 174 167 153 134
332 320 333 323 308 331 337 334 331 331 320 313 309 309 311 312 304 296 300 291 302 299 258 245 229 247 280 278 285 279 288 276 180 170 200 184 178 165 175 188 178 156 143
298 286 306 297 288 295 306 332 339 309 302 304 307 306 304 305 297 299 295 310 304 303 284 249 228 235 226 269 250 267 283 298 191 176 177 175 178 173 178 173 173 156 153
272 281 283 265 274 293 339 327 301 296 305 309 306 301 308 307 297 302 298 298 301 300 303 270 241 217 248 273 274 229 236 281 195 179 180 181 184 179 172 176 179 153 152